Selinsgrove, PA

6:21 PM EST on January 21, 2017 (GMT -0500)
Selinsgrove

Weather History for KSEG - August, 2012

Change the Weather History Date:

Friday, August 10, 2012

  Actual Average (KIPT) Record (KIPT)
Temperature  
Mean Temperature 74 °F -  
Max Temperature 80 °F 81 °F 99 °F (1949)
Min Temperature 69 °F 60 °F 45 °F (1899)
Cooling Degree Days 9    
Growing Degree Days 24 (Base 50)    
Moisture  
Dew Point 68 °F    
Average Humidity 87    
Maximum Humidity 96    
Minimum Humidity 69    
Precipitation  
Precipitation 0.44 in - - ()
Sea Level Pressure  
Sea Level Pressure 29.79 in    
Wind  
Wind Speed 2 mph (South)    
Max Wind Speed 7 mph    
Max Gust Speed -    
Visibility 6 miles    
Events Rain , Thunderstorm    
Averages and records for this station are not official NWS values.
T = Trace of Precipitation, MM = Missing Value Source: NWS Daily Summary

Daily Weather History Graph

Daily Weather History Graph

Search for Another Location

Airport or City:

Trip Planner

Search our weather history database for the weather conditions in past years. The results will help you decide how hot, cold, wet, or windy it might be!

Date:

Astronomy

Aug. 10, 2012 Rise Set
Actual Time 6:13 AM EDT 8:11 PM EDT
Civil Twilight 5:43 AM EDT 8:41 PM EDT
Nautical Twilight 5:06 AM EDT 9:17 PM EDT
Astronomical Twilight 4:27 AM EDT 9:57 PM EDT
Moon 12:00 AM EDT (8/10) 2:50 PM EDT (8/10)
Length of Visible Light 14h 58m
Length of Day
13h 58m
Last Quarter, 42% of the Moon is Illuminated
Aug 10
Last Quarter
Aug 17
New
Aug 24
First Quarter
Aug 31
Full
Sep 8
Last Quarter

Hourly Weather History & Observations

Time (EDT) Temp. Dew Point Humidity Pressure Visibility Wind Dir Wind Speed Gust Speed Precip Events Conditions
12:53 AM 69.1 °F 66.9 °F 93% 29.84 in 5.0 mi Calm Calm - N/A   Clear
1:53 AM 70.0 °F 66.9 °F 90% 29.83 in 5.0 mi North 3.5 mph - 0.00 in   Scattered Clouds
2:53 AM 70.0 °F 68.0 °F 93% 29.81 in 4.0 mi Calm Calm - N/A   Overcast
3:10 AM 69.8 °F 68.0 °F 94% 29.82 in 4.0 mi Calm Calm - N/A   Overcast
3:53 AM 70.0 °F 68.0 °F 93% 29.81 in 5.0 mi Calm Calm - 0.00 in   Overcast
4:53 AM 71.1 °F 66.9 °F 87% 29.82 in 7.0 mi WNW 6.9 mph - 0.00 in Rain , Thunderstorm Light Thunderstorms and Rain
5:00 AM 69.8 °F 66.2 °F 88% 29.84 in 1.5 mi Variable 4.6 mph - 0.04 in Rain , Thunderstorm Heavy Thunderstorms and Rain
5:03 AM 69.8 °F 66.2 °F 88% 29.84 in 0.8 mi NW 6.9 mph - 0.07 in Rain , Thunderstorm Heavy Rain
5:12 AM 69.8 °F 66.2 °F 88% 29.84 in 1.2 mi WNW 4.6 mph - 0.16 in Rain , Thunderstorm Heavy Rain
5:14 AM 69.8 °F 66.2 °F 88% 29.84 in 2.0 mi Variable 3.5 mph - 0.18 in Rain Heavy Rain
5:23 AM 69.8 °F 66.2 °F 88% 29.84 in 1.8 mi WNW 3.5 mph - 0.24 in Rain Heavy Rain
5:32 AM 69.8 °F 68.0 °F 94% 29.84 in 1.2 mi Calm Calm - 0.30 in Rain , Thunderstorm Heavy Thunderstorms and Rain
5:41 AM 69.8 °F 66.2 °F 88% 29.83 in 3.0 mi Calm Calm - 0.35 in Rain , Thunderstorm Light Thunderstorms and Rain
5:47 AM 69.8 °F 66.2 °F 88% 29.84 in 4.0 mi Calm Calm - 0.37 in Rain Light Rain
5:53 AM 69.1 °F 66.9 °F 93% 29.83 in 4.0 mi Calm Calm - 0.37 in   Overcast
6:37 AM 69.8 °F 68.0 °F 94% 29.82 in 2.0 mi Calm Calm - 0.01 in Rain Light Rain
6:46 AM 69.8 °F 68.0 °F 94% 29.81 in 1.8 mi Calm Calm - 0.01 in Rain Light Rain
6:53 AM 69.1 °F 68.0 °F 96% 29.81 in 1.5 mi Calm Calm - 0.01 in   Mostly Cloudy
7:00 AM 69.8 °F 68.0 °F 94% 29.81 in 1.5 mi Calm Calm - N/A   Mostly Cloudy
7:30 AM 69.8 °F 68.0 °F 94% 29.81 in 2.0 mi Calm Calm - 0.00 in Rain Light Rain
7:53 AM 70.0 °F 68.0 °F 93% 29.81 in 2.0 mi Calm Calm - 0.00 in Rain Light Rain
8:26 AM 69.8 °F 68.0 °F 94% 29.82 in 2.5 mi Calm Calm - 0.00 in Rain Light Rain
8:32 AM 69.8 °F 68.0 °F 94% 29.82 in 3.0 mi Calm Calm - 0.00 in Rain Light Rain
8:42 AM 69.8 °F 68.0 °F 94% 29.81 in 4.0 mi Calm Calm - 0.00 in Rain Light Rain
8:53 AM 70.0 °F 68.0 °F 93% 29.81 in 4.0 mi Calm Calm - 0.00 in Rain Light Rain
9:10 AM 71.6 °F 68.0 °F 88% 29.81 in 4.0 mi Calm Calm - 0.00 in Rain Light Rain
9:22 AM 69.8 °F 68.0 °F 94% 29.80 in 4.0 mi Calm Calm - 0.01 in Rain Light Rain
10:01 AM 71.6 °F 68.0 °F 88% 29.81 in 3.0 mi Calm Calm - 0.01 in Rain Light Rain
10:53 AM 73.0 °F 68.0 °F 84% 29.78 in 10.0 mi SE 5.8 mph - 0.03 in   Mostly Cloudy
11:53 AM 75.0 °F 68.0 °F 79% 29.77 in 10.0 mi SE 3.5 mph - N/A   Partly Cloudy
12:26 PM 75.2 °F 68.0 °F 78% 29.77 in 10.0 mi Calm Calm - N/A   Overcast
12:53 PM 75.9 °F 68.0 °F 76% 29.75 in 10.0 mi South 4.6 mph - N/A   Overcast
1:53 PM 77.0 °F 68.0 °F 74% 29.74 in 10.0 mi Variable 5.8 mph - N/A   Overcast
2:04 PM 78.8 °F 68.0 °F 69% 29.75 in 10.0 mi Variable 3.5 mph - N/A   Overcast
2:53 PM 77.0 °F 68.0 °F 74% 29.74 in 10.0 mi Calm Calm - N/A   Overcast
3:53 PM 75.9 °F 68.0 °F 76% 29.75 in 10.0 mi SW 3.5 mph - 0.00 in Rain Light Rain
4:09 PM 75.2 °F 69.8 °F 83% 29.75 in 2.5 mi Calm Calm - 0.01 in Rain Light Rain
4:17 PM 75.2 °F 69.8 °F 83% 29.74 in 10.0 mi South 3.5 mph - 0.02 in   Overcast
4:53 PM 79.0 °F 70.0 °F 74% 29.72 in 10.0 mi SSE 4.6 mph - 0.03 in   Partly Cloudy
5:53 PM 78.1 °F 68.0 °F 71% 29.73 in 10.0 mi SSE 5.8 mph - N/A   Clear
6:53 PM 79.0 °F 70.0 °F 74% 29.74 in 10.0 mi Variable 3.5 mph - N/A   Clear
7:53 PM 75.9 °F 71.1 °F 85% 29.74 in 10.0 mi SE 3.5 mph - N/A   Scattered Clouds
8:53 PM 73.0 °F 70.0 °F 90% 29.75 in 10.0 mi ESE 3.5 mph - N/A   Clear
9:53 PM 71.1 °F 69.1 °F 93% 29.75 in 7.0 mi Calm Calm - N/A   Clear
10:53 PM 72.0 °F 70.0 °F 93% 29.76 in 9.0 mi Calm Calm - N/A   Mostly Cloudy
11:53 PM 73.0 °F 68.0 °F 84% 29.77 in 10.0 mi Variable 3.5 mph - 0.00 in Rain Light Rain